Вернуться в каталог

COSMOS 2491 DEB

АктивенPO
NORAD 57550·DEBRIS·🇷🇺 Russia

Запущен Dec 25, 2013 с Plesetsk Cosmodrome

Loading…

Ближайшие Пролёты (ближайшие 24 часа)

TLE

УстаревающийSource: Space-Track

Эпоха: Sep 4, 2026, 17:31 UTC

1 57550U 13076AM  26247.73035989  .00002539  00000-0  10905-1 0  9999
2 57550  82.4578  44.6691 0194357 266.7251  91.1597 12.75781055154234

Отслеживайте COSMOS 2491 DEB в реальном времени с AllMySat

Download on the App Store